This is the latest recevied weather packets stored in our database for station/object W4TTU-1. If no packets are shown the sender has not sent any weather packets the latest 10 day(s).
| Time | Temp. | Humidity | Pressure | Rain* | Wind** | Luminosity | Snow |
|---|---|---|---|---|---|---|---|
| 1778139289 | 12.22° C | 32% | 843.4 hPa | 0 mm | - | - | - |
| 1778138388 | 11.67° C | 29% | 843.3 hPa | 0 mm | - | - | - |
| 1778137488 | 11.67° C | 26% | 843.5 hPa | 0 mm | - | - | - |
| 1778136587 | 12.22° C | 26% | 843.7 hPa | 0 mm | - | - | - |
| 1778135687 | 11.67° C | 26% | 843.6 hPa | 0 mm | - | - | - |
| 1778134786 | 11.67° C | 26% | 843.5 hPa | 0 mm | - | - | - |
| 1778133886 | 11.67° C | 25% | 843.5 hPa | 0 mm | - | - | - |
| 1778132985 | 11.67° C | 25% | 843.5 hPa | 0 mm | - | - | - |
| 1778132085 | 11.67° C | 25% | 843.4 hPa | 0 mm | - | - | - |
| 1778131184 | 11.67° C | 24% | 843.1 hPa | 0 mm | - | - | - |
| 1778130283 | 12.22° C | 23% | 843 hPa | 0 mm | - | - | - |
| 1778129383 | 12.78° C | 23% | 842.9 hPa | 0 mm | - | - | - |
| 1778128483 | 13.33° C | 23% | 843 hPa | 0 mm | - | - | - |
| 1778127582 | 14.44° C | 23% | 843.2 hPa | 0 mm | - | - | - |
| 1778126682 | 15° C | 23% | 843.3 hPa | 0 mm | - | - | - |
| 1778125781 | 16.11° C | 22% | 843.1 hPa | 0 mm | - | - | - |
| 1778124880 | 17.22° C | 23% | 843.1 hPa | 0 mm | - | - | - |
| 1778123980 | 18.33° C | 22% | 843 hPa | 0 mm | - | - | - |
| 1778123079 | 19.44° C | 22% | 842.9 hPa | 0 mm | - | - | - |
| 1778122179 | 21.11° C | 22% | 842.8 hPa | 0 mm | - | - | - |
| 1778121279 | 22.78° C | 22% | 842.8 hPa | 0 mm | - | - | - |
| 1778119474 | 25.56° C | 23% | 842.5 hPa | 0 mm | - | - | - |
| 1778118574 | 26.67° C | 23% | 842.5 hPa | 0 mm | - | - | - |
| 1778117673 | 27.22° C | 23% | 842.3 hPa | 0 mm | - | - | - |
| 1778116773 | 27.78° C | 23% | 842.3 hPa | 0 mm | - | - | - |
* Rain since midnight (hover to see other rain measurements)
** Current wind speed in m/s (hover to see current wind gust speed)